DateTimeUTC,F1_A11,F1_S11,BsB_S11,BsG_S11,BsR_S11,BbsB_S11,BbsG_S11,BbsR_S11,BaB_A11,BaG_A11,BaR_A11,Tu_S11,T_S11,Uu_S11,U_S11,P_S11,T1_A11
2021-08-25T05:00:00Z,00000200,20000000,,,,,,,-000.15,-000.34,0000.40,19.0,25.7,11.1,07.4,0677.3,31.0
2021-08-25T05:01:00Z,00000200,20000000,,,,,,,0000.01,-000.13,-000.20,18.9,25.7,11.2,07.4,0677.3,31.0
2021-08-25T05:02:00Z,00000200,20000000,,,,,,,-000.20,0000.10,-000.38,18.9,25.7,11.2,07.4,0677.3,31.0
2021-08-25T05:03:00Z,00000200,60000000,,,,,,,0000.29,0000.06,0000.26,18.9,25.7,11.2,07.4,0677.3,31.0
2021-08-25T05:04:00Z,00000200,40000000,0002.07,0001.98,0001.25,0000.98,0000.36,0000.06,0000.54,0000.76,0000.74,19.0,25.5,11.0,07.4,0678.2,31.0
2021-08-25T05:05:00Z,00000200,00000000,0002.70,0001.79,0001.36,0000.23,0000.16,0000.35,0000.27,0000.39,-000.11,19.1,25.5,10.9,07.4,0678.3,31.0
2021-08-25T05:06:00Z,00000200,00000000,0001.77,0001.79,0001.53,0000.87,0000.53,0000.19,0000.68,0000.10,0000.40,19.1,25.5,11.0,07.5,0678.3,31.0
2021-08-25T05:07:00Z,00000200,00000000,0001.51,0002.00,0001.43,0000.92,0000.49,0000.04,0000.53,0000.66,0000.52,19.1,25.5,11.1,07.5,0678.3,31.0
2021-08-25T05:08:00Z,00000200,00000000,0001.81,0001.95,0001.61,0000.45,0000.37,0000.17,0000.25,0000.33,0000.26,19.1,25.4,11.0,07.5,0678.3,31.0
2021-08-25T05:09:00Z,00000200,00000000,0002.07,0001.68,0001.40,0000.07,0000.17,0000.08,0000.40,0000.34,0000.56,19.1,25.4,11.0,07.5,0678.3,31.0
2021-08-25T05:10:00Z,00000200,00000000,0002.22,0002.42,0001.37,0000.38,0000.35,0000.55,0000.34,0000.47,0000.11,19.1,25.4,11.1,07.5,0678.2,31.0
2021-08-25T05:11:00Z,00000200,00000000,0002.62,0002.09,0000.95,0000.19,0000.56,0000.15,0000.47,0000.69,-000.08,19.1,25.4,11.0,07.5,0678.3,31.0
2021-08-25T05:12:00Z,00000200,00000000,0001.19,0001.90,0001.27,0000.58,0000.12,0000.03,0000.44,0000.13,0000.54,19.1,25.4,11.0,07.5,0678.2,31.0
2021-08-25T05:13:00Z,00000200,00000000,0001.51,0001.94,0001.34,0000.36,0000.48,0000.30,0000.62,0000.40,0000.56,19.1,25.4,11.0,07.5,0678.3,31.0
2021-08-25T05:14:00Z,00000200,00000000,0002.18,0001.62,0001.23,0000.62,0000.54,0000.68,0000.36,0000.28,0000.57,19.1,25.4,10.9,07.4,0678.2,31.0
2021-08-25T05:15:00Z,00000200,00000000,0001.49,0001.82,0001.14,0000.62,0000.34,0000.10,0000.18,0000.18,-000.17,19.1,25.4,10.9,07.4,0678.2,31.0
2021-08-25T05:16:00Z,00000200,00000000,0002.53,0001.77,0001.38,0000.69,0000.44,0000.40,0000.57,0000.39,0000.27,19.1,25.4,10.8,07.4,0678.2,31.0
2021-08-25T05:17:00Z,00000200,00000000,0002.03,0001.59,0001.54,0000.52,0000.30,-000.04,0000.44,0000.83,0000.44,19.1,25.4,10.8,07.4,0678.3,31.0
2021-08-25T05:18:00Z,00000200,00000000,0002.41,0001.60,0001.33,0000.25,0000.13,0000.22,0000.03,-000.25,0000.35,19.1,25.4,10.8,07.4,0678.3,31.0
2021-08-25T05:19:00Z,00000200,00000000,0002.32,0002.01,0001.70,0000.40,0000.61,0000.15,0000.62,0000.80,0000.16,19.1,25.4,10.8,07.4,0678.3,31.0
2021-08-25T05:20:00Z,00000200,00000000,0002.15,0001.74,0001.10,0000.26,0000.40,0000.21,0000.35,0000.56,0000.70,19.1,25.4,10.8,07.3,0678.3,31.0
2021-08-25T05:21:00Z,00000200,00000000,0002.31,0002.04,0001.43,0000.40,0000.61,-000.00,0000.47,0000.12,0000.26,19.1,25.4,10.8,07.4,0678.2,31.0
2021-08-25T05:22:00Z,00000200,00000000,0001.98,0001.60,0001.37,0000.75,0000.49,0000.39,0000.49,0000.22,0000.39,19.0,25.4,10.9,07.4,0678.2,31.0
2021-08-25T05:23:00Z,00000200,00000000,0002.10,0001.74,0001.19,0001.06,0000.31,0000.07,0000.47,0000.67,0000.37,19.1,25.4,11.0,07.5,0678.3,31.0
2021-08-25T05:24:00Z,00000200,00000000,0001.92,0001.82,0001.40,0000.72,0000.41,0000.25,0000.59,0000.31,0000.49,19.1,25.4,10.9,07.4,0678.3,31.0
2021-08-25T05:25:00Z,00000200,00000000,0001.83,0001.56,0001.72,0000.08,0000.32,0000.18,0000.30,0000.41,-000.11,19.1,25.4,11.0,07.5,0678.3,31.0
2021-08-25T05:26:00Z,00000200,00000000,0002.20,0001.39,0001.41,0000.55,0000.41,0000.36,0000.47,0000.47,0000.55,19.1,25.4,10.9,07.4,0678.3,31.0
2021-08-25T05:27:00Z,00000200,00000000,0001.69,0001.77,0001.01,0001.06,0000.63,0000.35,0000.53,0000.48,0000.69,19.1,25.4,10.9,07.5,0678.3,31.0
2021-08-25T05:28:00Z,00000200,00000000,0001.91,0002.08,0000.82,0000.50,0000.31,-000.08,0000.21,0000.32,-000.18,19.1,25.4,10.9,07.4,0678.3,31.0
2021-08-25T05:29:00Z,00000200,00000000,0002.10,0001.78,0001.17,0000.83,0000.35,0000.01,0000.23,0000.08,0000.34,19.0,25.4,10.9,07.4,0678.3,31.0
2021-08-25T05:30:00Z,00000200,00000000,0002.23,0001.62,0001.60,0000.45,0000.30,0000.20,0000.56,0000.70,0000.20,19.0,25.4,10.9,07.4,0678.3,31.0
2021-08-25T05:31:00Z,00000200,00000000,0002.23,0001.98,0001.54,0000.79,0000.37,0000.19,0000.09,-000.10,0000.19,19.1,25.4,10.9,07.4,0678.3,31.0
2021-08-25T05:32:00Z,00000200,00000000,0001.64,0001.80,0001.41,0000.51,0000.47,0000.03,0000.34,0000.57,-000.07,19.0,25.4,10.9,07.4,0678.4,31.0
2021-08-25T05:33:00Z,00000200,00000000,0001.83,0001.90,0001.27,0000.69,0000.35,0000.24,0000.25,0000.07,0000.64,19.1,25.3,10.8,07.3,0678.4,31.0
2021-08-25T05:34:00Z,00000200,00000000,0002.93,0001.85,0001.52,0000.45,0000.26,0000.40,0000.33,0000.33,0000.17,19.0,25.3,10.7,07.3,0678.4,31.0
2021-08-25T05:35:00Z,00000200,00000000,0001.50,0001.86,0001.25,0000.79,0000.27,0000.21,0000.43,0000.50,0000.47,19.1,25.4,10.7,07.3,0678.4,31.0
2021-08-25T05:36:00Z,00000200,00000000,0002.11,0002.18,0001.10,0001.03,0000.38,0000.09,0000.52,0000.72,0000.35,19.1,25.3,10.7,07.3,0678.4,31.0
2021-08-25T05:37:00Z,00000200,00000000,0002.08,0001.92,0001.27,0000.71,0000.16,0000.25,0000.29,0000.00,-000.02,19.1,25.4,10.8,07.3,0678.4,31.0
2021-08-25T05:38:00Z,00000200,00000000,0000.76,0001.78,0001.06,0000.44,0000.25,0000.08,0000.30,0000.24,0000.47,19.1,25.4,10.7,07.3,0678.3,31.0
2021-08-25T05:39:00Z,00000200,00000000,0001.54,0001.62,0001.37,-000.14,0000.01,0000.19,0000.46,0000.35,0000.24,19.1,25.4,10.8,07.3,0678.4,31.0
2021-08-25T05:40:00Z,00000200,00000000,0001.66,0001.85,0001.02,0000.78,0000.25,0000.07,0000.26,0000.58,0000.50,19.1,25.3,10.7,07.3,0678.3,31.0
2021-08-25T05:41:00Z,00000200,00000000,0001.83,0001.32,0001.25,0000.77,0000.50,0000.10,0000.53,-000.05,0000.06,19.1,25.4,10.7,07.3,0678.3,31.0
2021-08-25T05:42:00Z,00000200,00000000,0002.18,0001.85,0000.98,0000.07,0000.53,0000.09,0000.50,0000.64,0000.19,19.0,25.4,10.6,07.2,0678.3,31.0
2021-08-25T05:43:00Z,00000200,00000000,0002.05,0001.78,0001.14,0001.01,-000.05,-000.01,0000.61,0000.92,0000.82,19.1,25.3,10.7,07.3,0678.3,31.0
2021-08-25T05:44:00Z,00000200,00000000,0002.48,0001.52,0001.31,0000.45,0000.25,0000.23,0000.25,0000.04,0000.18,19.1,25.3,10.6,07.3,0678.3,31.0
2021-08-25T05:45:00Z,00000200,00000000,0001.78,0001.96,0001.18,0000.55,0000.18,-000.07,0000.57,0000.38,0000.29,19.1,25.3,10.7,07.3,0678.3,31.0
2021-08-25T05:46:00Z,00000200,00000000,0002.02,0001.82,0001.13,0000.42,0000.39,-000.02,0000.51,0000.74,0000.52,19.1,25.3,10.7,07.3,0678.3,31.0
2021-08-25T05:47:00Z,00000200,00000000,0002.37,0001.57,0001.25,0000.15,0000.55,0000.18,0000.77,0000.31,0000.08,19.1,25.3,10.6,07.3,0678.3,31.0
2021-08-25T05:48:00Z,00000200,00000000,0002.01,0001.83,0001.28,0000.77,0000.20,0000.13,-000.36,0000.55,0000.51,19.2,25.4,10.5,07.2,0678.3,31.0
2021-08-25T05:49:00Z,00000200,00000000,0002.65,0002.11,0001.24,0000.28,0000.58,0000.00,0000.38,-000.25,0000.01,19.2,25.4,10.5,07.2,0678.3,31.1
2021-08-25T05:50:00Z,00000200,00000000,0002.59,0001.87,0001.05,0000.33,0000.40,0000.11,0000.94,0000.78,0000.68,19.3,25.4,10.5,07.2,0678.3,31.0
2021-08-25T05:51:00Z,00000200,00000000,0002.24,0001.56,0001.09,-000.01,0000.36,0000.07,0000.05,0000.41,0000.25,19.3,25.4,10.4,07.1,0678.4,31.0
2021-08-25T05:52:00Z,00000200,00000000,0002.01,0001.92,0001.03,0000.72,0000.09,0000.05,0000.67,0000.26,0000.41,19.3,25.5,10.4,07.2,0678.3,31.0
2021-08-25T05:53:00Z,00000200,00000000,0002.24,0001.95,0001.62,0000.29,0000.57,0000.48,0000.10,0000.44,0000.12,19.3,25.5,10.4,07.2,0678.3,31.0
2021-08-25T05:54:00Z,00000200,00000000,0002.49,0001.69,0000.98,0000.96,0000.54,-000.04,0000.54,0000.31,0000.21,19.3,25.5,10.4,07.2,0678.3,31.0
2021-08-25T05:55:00Z,00000200,00000000,0001.85,0001.80,0001.11,0000.72,0000.40,-000.11,0000.37,0000.30,0000.29,19.3,25.4,10.3,07.1,0678.3,31.0
2021-08-25T05:56:00Z,00000200,00000000,0001.47,0001.83,0001.20,0000.54,0000.44,0000.06,0000.04,-000.05,0000.39,19.2,25.4,10.3,07.0,0678.3,31.0
2021-08-25T05:57:00Z,00000200,40000000,,,,,,,0000.57,0000.48,0000.17,19.3,25.5,10.5,07.2,0678.3,31.0
2021-08-25T05:58:00Z,00000200,60000000,,,,,,,-000.01,0000.19,-000.14,19.0,25.5,10.5,07.0,0677.3,31.0
2021-08-25T05:59:00Z,00000200,20000000,,,,,,,-000.04,-000.60,-000.11,19.0,25.6,10.5,07.0,0677.3,31.0
